Location: Huntsville
(41.2590°N, 111.7678°W)
Time: 07:40:33
(UTC+00:00)

Transit 4A - Visible Passes

Search period start: 25 September 2022 00:00
Search period end: 05 October 2022 00:00
Orbit: 869 x 975 km, 66.8° (Epoch: 24 September)

Date Brightness Start Highest point End Pass type
(mag) Time Alt. Az. Time Alt. Az. Time Alt. Az.
25 Sep 10.3 09:24:56 13° NNW 09:24:56 13° NNW 09:26:06 10° N visible
26 Sep 10.4 09:33:56 10° NNW 09:33:56 10° NNW 09:34:17 10° NNW visible
27 Sep 10.7 07:59:25 10° NNE 07:59:25 10° NNE 07:59:26 10° NNE visible
02 Oct 10.4 12:19:57 10° N 12:22:15 12° NNE 12:24:30 10° ENE visible
03 Oct 10.3 12:28:21 10° N 12:31:58 16° NE 12:35:32 10° ENE visible
04 Oct 10.1 12:37:05 10° N 12:41:35 22° NE 12:46:03 10° E visible
